Location: Unspecified
(0.0000°N, 0.0000°E)
Time: 09:59:20
(UTC+00:00)

Vanguard 2 - Pass Details

Date: 12 December 2017
Orbit: 554 x 2939 km, 32.9° (Epoch: 24 June)

Event Time Altitude Azimuth Distance (km) Brightness Sun altitude
Rises 07:46:53 0° 221° (SW) 6,579 12.1 25.8°
Reaches altitude 10° 07:52:58 10° 208° (SSW) 5,726 12.0 27.2°
Maximum altitude 08:05:37 23° 162° (SSE) 4,677 12.4 30.0°
Drops below altitude 10° 08:17:03 10° 116° (ESE) 5,199 13.3 32.6°
Sets 08:22:04 0° 102° (ESE) 5,868 13.0 33.7°
